TimePDT,TemperatureF,Dew PointF,Humidity,Sea Level PressureIn,VisibilityMPH,Wind Direction,Wind SpeedMPH,Gust SpeedMPH,PrecipitationIn,Events,Conditions,WindDirDegrees,DateUTC
12:56 AM,64.0,59.0,84,30.01,10.0,Calm,Calm,-,N/A,,Clear,0,2012-10-16 07:56:00
1:56 AM,63.0,57.9,84,30.02,10.0,Calm,Calm,-,N/A,,Clear,0,2012-10-16 08:56:00
3:56 AM,64.9,60.1,84,30.00,10.0,Calm,Calm,-,N/A,,Overcast,0,2012-10-16 10:56:00
5:45 AM,64.4,60.8,88,30.01,10.0,Calm,Calm,-,N/A,,Overcast,0,2012-10-16 12:45:00
5:56 AM,64.9,60.1,84,30.00,10.0,Calm,Calm,-,N/A,,Overcast,0,2012-10-16 12:56:00
6:23 AM,64.4,60.8,88,30.02,10.0,Calm,Calm,-,N/A,,Scattered Clouds,0,2012-10-16 13:23:00
6:56 AM,64.0,60.1,87,30.00,10.0,Calm,Calm,-,N/A,,Mostly Cloudy,0,2012-10-16 13:56:00
7:56 AM,64.9,60.1,84,30.01,10.0,Calm,Calm,-,N/A,,Overcast,0,2012-10-16 14:56:00
9:56 AM,72.0,61.0,68,30.02,10.0,Calm,Calm,-,N/A,,Mostly Cloudy,0,2012-10-16 16:56:00
10:20 AM,73.4,60.8,65,30.03,10.0,NNW,4.6,-,N/A,,Scattered Clouds,340,2012-10-16 17:20:00
10:56 AM,75.9,62.1,62,30.01,10.0,NNE,4.6,-,N/A,,Clear,30,2012-10-16 17:56:00
11:56 AM,79.0,61.0,54,29.99,10.0,NNW,9.2,-,N/A,,Scattered Clouds,340,2012-10-16 18:56:00
12:56 PM,81.0,59.0,47,29.97,10.0,NNW,12.7,-,N/A,,Clear,330,2012-10-16 19:56:00
1:56 PM,80.1,55.9,43,29.94,10.0,WNW,12.7,-,N/A,,Clear,290,2012-10-16 20:56:00
2:56 PM,80.1,55.9,43,29.91,10.0,WNW,15.0,20.7,N/A,,Clear,290,2012-10-16 21:56:00
3:56 PM,81.0,55.0,41,29.91,10.0,West,10.4,-,N/A,,Clear,280,2012-10-16 22:56:00
4:56 PM,80.1,55.0,42,29.90,10.0,WNW,8.1,-,N/A,,Clear,300,2012-10-16 23:56:00
5:56 PM,73.9,55.0,52,29.90,10.0,NNE,9.2,-,N/A,,Clear,20,2012-10-17 00:56:00
6:56 PM,70.0,53.1,55,29.91,10.0,NE,5.8,-,N/A,,Clear,40,2012-10-17 01:56:00
7:56 PM,66.9,52.0,59,29.93,10.0,North,4.6,-,N/A,,Clear,350,2012-10-17 02:56:00
8:56 PM,64.0,52.0,65,29.95,10.0,Calm,Calm,-,N/A,,Clear,0,2012-10-17 03:56:00
9:56 PM,61.0,51.1,70,29.96,10.0,Calm,Calm,-,N/A,,Clear,0,2012-10-17 04:56:00
10:56 PM,57.9,50.0,75,29.97,10.0,NNW,3.5,-,N/A,,Clear,340,2012-10-17 05:56:00
11:56 PM,57.0,50.0,77,29.97,10.0,Calm,Calm,-,N/A,,Clear,0,2012-10-17 06:56:00